Location: Observatoire de La Sitelle
(46.0500°N, 74.2167°W)
Time: 23:10:46
(UTC-05:00)

ISS - Visible Passes

Search period start: 23 February 2018 00:00
Search period end: 05 March 2018 00:00
Orbit: 402 x 407 km, 51.6° (Epoch: 24 February)

Date Brightness Start Highest point End Pass type
(mag) Time Alt. Az. Time Alt. Az. Time Alt. Az.
25 Feb -0.8 05:52:44 10° SSE 05:54:26 13° SE 05:56:07 10° ESE visible
27 Feb -1.9 05:43:18 10° SSW 05:46:09 28° SE 05:49:01 10° E visible
28 Feb -1.1 04:51:57 10° S 04:54:06 16° SE 04:56:15 10° E visible
01 Mar -3.3 05:34:55 11° SW 05:37:58 59° SSE 05:41:12 10° ENE visible
02 Mar -2.5 04:45:03 30° S 04:45:47 34° SE 04:48:48 10° ENE visible
03 Mar -0.9 03:55:03 16° ESE 03:55:03 16° ESE 03:56:08 10° E visible
03 Mar -3.8 05:27:43 20° WSW 05:29:51 72° NNW 05:33:08 10° ENE visible
04 Mar -3.7 04:37:37 71° SE 04:37:37 71° SE 04:40:50 10° ENE visible
